This demonstration page uses our WeatherBlox Daily Observations layout. Learn more.

Left ArrowRight Arrow

Hourly Observations for December 1, 2015

Temp ( °F °C ) Dew Point ( °F °C ) Humidity (%) Winds ( mph kmh ) Pressure ( in mb ) Visibility ( mi km ) Precip ( " mm )
12:51 am 00:51 Clear 29 -1.7 16 -8.9 58 58 E 5 7 30.06 1018 10 16 N/A
1:51 am 01:51 Clear 30 -1.1 17 -8.3 58 58 SSE 5 7 30.05 1018 10 16 N/A
2:51 am 02:51 Clear 27 -2.8 15 -9.4 61 61 N N/A 30.05 1018 10 16 N/A
3:51 am 03:51 Clear 30 -1.1 18 -7.8 61 61 N N/A 30.05 1018 10 16 N/A
4:51 am 04:51 Clear 24 -4.4 13 -10.6 62 62 N N/A 30.06 1018 10 16 N/A
5:51 am 05:51 Clear 25 -3.9 15 -9.4 66 66 SE 5 7 30.09 1019 10 16 N/A
6:51 am 06:51 Clear 22 -5.6 14 -10 71 71 N N/A 30.13 1020 10 16 N/A
7:51 am 07:51 Sunny 30 -1.1 17 -8.3 58 58 N N/A 30.14 1021 10 16 N/A
8:51 am 08:51 Sunny 34 1.1 18 -7.8 52 52 S 3 6 30.14 1021 10 16 N/A
9:32 am 09:32 Hazy 39 3.9 19 -7.2 45 45 N N/A 30.21 1023 2 3 N/A
9:51 am 09:51 Sunny 42 5.6 18 -7.8 38 38 N N/A 30.13 1020 10 16 N/A
10:51 am 10:51 Sunny 47 8.3 17 -8.3 30 30 VRB 3 6 30.11 1020 10 16 N/A
11:51 am 11:51 Sunny 52 11.1 17 -8.3 25 25 undefined N/A 30.08 1019 10 16 N/A
12:51 pm 12:51 Sunny 54 12.2 17 -8.3 23 23 WNW 8 13 30.06 1018 10 16 N/A
1:51 pm 13:51 Sunny 56 13.3 16 -8.9 21 21 WNW 9 15 30.04 1017 10 16 N/A
2:51 pm 14:51 Sunny 58 14.4 12 -11.1 16 16 W 10 17 30.02 1017 10 16 N/A
3:51 pm 15:51 Sunny 58 14.4 13 -10.6 17 17 W 7 11 30.00 1016 10 16 N/A
4:51 pm 16:51 Sunny 56 13.3 14 -10 19 19 W 6 9 30.03 1017 10 16 N/A
5:51 pm 17:51 Clear 49 9.4 16 -8.9 27 27 WSW 6 9 30.07 1018 10 16 N/A
6:51 pm 18:51 Clear 41 5 15 -9.4 35 35 N N/A 30.11 1020 10 16 N/A
7:51 pm 19:51 Clear 39 3.9 15 -9.4 38 38 E 5 7 30.11 1020 10 16 N/A
8:51 pm 20:51 Clear 38 3.3 13 -10.6 36 36 E 5 7 30.12 1020 10 16 N/A
9:51 pm 21:51 Clear 34 1.1 13 -10.6 42 42 N N/A 30.14 1021 10 16 N/A
10:51 pm 22:51 Clear 33 0.6 13 -10.6 43 43 ESE 3 6 30.15 1021 10 16 N/A
11:51 pm 23:51 Clear 30 -1.1 12 -11.1 47 47 E 3 6 30.15 1021 10 16 N/A

Powered by AerisWeather